COSMOS 252 DEB *, 3690

Orbit data source: Space-Track

COSMOS 252 DEB *, 3690 is space debris in LEO originally from a launch on Fri, 01 Nov 1968 UTC launched from the Tyuratam Missile And Space Complex (TTMTR). Debris objects in space refer to the collection of defunct objects orbiting the Earth. Examples of debris include non-operational satellites, rocket bodies, and fragments generated from explosions, collisions, or faulty payload assembly.

Loading next visibility...
Identifier
3690, 1968-097AH
Orbit
LEO
Country
Flag of CISCIS
Related business
Manufacturer
Unknown
Mission
Spacecraft
Bus & Motor
Unknown
Mass
Unknown
Launch date (UTC)
1968-11-01 (58 years ago)
Launch vehicle
Unknown
Launch site
Tyuratam Missile And Space Complex (TTMTR)
Object type
Payload
Rocket body
Debris
Shape & HBR
Unknown shape, 0.1 m
Radar Cross Section
Medium (>0.1 m² and <1 m²)

Expand to show TLE details & history
Last TLE update: 2 days ago

TLE from 2 days ago
0 COSMOS 252 DEB *
1 03690U 68097AH  26173.55126788  .00000163  00000-0  25119-3 0  9990
2 03690  62.3518  14.0199 0761310 258.2083  93.2610 12.90670840672862
Epoch: 2026-06-22T13:13Z
TLE epoch observation values (Epoch: 2026-06-22T13:13:49.544Z)
Latitude
-0.00001°
Longitude
-95.1721°
Altitude
1,377.642 km
Speed
7.135 km/s
True Right ascension
00h 56m 04s
True Declination
0° 00' 00"
Sunlit
Object was in daylight at epoch
Visualization orbit readout
Latitude
Unknown
Longitude
Unknown
Altitude
Unknown
Speed
Unknown
Apparent Right ascension
Unknown
Apparent Declination
Unknown
Sunlit
N/A
Visualization observer readout
Local Sidereal Time
14:08:21
Azimuth
Unknown
Elevation
Unknown
Doppler factor
Unknown
Orbital elements
Apogee altitude
1,882.223 km
Perigee altitude
713.463 km
Semi-major axis
7,675.98 km
Eccentricity
0.07613
Inclination
62.3518°
RAAN
14.0199°
Arg. of periapsis
258.2083°
True anomaly
101.89122°
Mean anomaly
93.261°
Eccentric anomaly
97.58482°
Mean motion
3.22732 °/min
Orbital period
111.55 mins
BSTAR
0.00025119

Documentation

Showing up to 5 results
|